SENTINEL-3B

Last updated on Sat Aug 15 2026 00:02:40 GMT+0000 (Coordinated Universal Time)

1 43437U 18039A 26226.60785424 .00000041 00000+0 34825-4 0 9996 2 43437 98.6209 293.2898 0001658 102.5288 257.6078 14.26737261432456
UTC large
Height (km)
Speed (km/s)
/
Latitude / Longitude
Inclination (degrees)
Orbital Period (minutes)
Azimuth
Elevation
Range (km)
Doppler Factor

Next 0 passes for location: London (51.5072 / 0.1276)

No passes found over London.
SENTINEL-3B